Participated 10 times
Between 1999 and 2010
Mario Aerts, Belgium
Tour de France 2026 starts from Barcelona, Spain in

Stats and Facts from
Tour de France.

2026   2025   2024   2023  2022  2021  2020  2019   2018  2017   2016   2015  2014  2013   2012   2011  2010   2009   2008   2007   2006   2005   2004   2003   2002   2001   2000   1999   1998   1997  1996   1995   1994   1993   1992  1991   1990   1989   1988   1987   1986   1985   1984   1983  1982  1981   1980   1979  1978  1977   1976  1975  1974  1973   1972   1971   1970  1969   1968   1967   1966   1965  1964  1963   1962   1961   1960   1959   1958   1957  1956   1955   1954   1953   1952  1951  1950  1949   1948  1947  1939   1938   1937   1936   1935   1934   1933  1932   1931   1930  1929   1928   1927   1926  1925  1924  1923   1922   1921   1920   1919  1914   1913   1912   1911   1910  1909   1908   1907   1906  1905  1904   1903 

Tourstats
Sitemap

After stage 21 - 2025:
 16451 starters.
  5463 different riders.
  689 teams.
  2398 stages.
  470 restdays.
  466506.50 km.
  5925 abandoned riders.

Click map for 1991 route.
Facts from Tour de France 1991
  |   Stages.  |   Stage winners.  |   Days in jerseys.  |   Teams.  |   All riders.  |   All riders by age.  |   All riders from.  |  

  |   Rookies.  |   Withdrawls.  |   Average speed.  |   GC.  |   Polka  |   Green  |   White  |   Summits. (In tour)  |   Miscellaneous.  |  

Stage 13 on July 19th. 1991
Pick a stage:  Pro  1  2  3  4  5  6  7  8  9  10  11  12  13  14  15  16  17  18  19  20  21  22  

After stage 13:    Miguel Indurain  
  JacaVal-Louron | Dist: 232.00km. | Winner: Claudio Chiappucci

Podium
1  Col de Pourtalet - Bubal Peter De Clercqafter56.00 km.

HC  Col de l'Aubisque Guido Winterbergafter100.00 km.

HC  Col du Tourmalet Claudio Chiappucciafter166.00 km.

2  Col d'Aspin Claudio Chiappucciafter196.00 km.

1  Station de Val Louron - Arreau Miguel Indurainafter231.00 km.


Average speed for all riders in stage:  30,252 km./hr.

1
 Claudio Chiappucci  Carrera Jeans07h 11' 16"=32,277  km/h

71  Jesus Rodriguez Magro  Banesto07h 11' 16"=32,277  km/h

2
 Miguel Indurain  Banesto07h 11' 17"+  00:00:01 =32,276  km/h

3
 Gianni Bugno  Gatorade-Chateau d'Ax07h 12' 45"+  00:01:29 =32,166  km/h

4  Laurent Fignon  Castorama07h 16' 32"+  00:05:16 =31,888  km/h

6  Andy Hampsten  Motorola07h 17' 17"+  00:06:01 =31,833  km/h

5  Charly Mottet  R.M.O.-Mavic-Liberia07h 17' 35"+  00:06:19 =31,811  km/h

7  Eduardo Chozas  O.N.C.E.07h 17' 40"+  00:06:24 =31,805  km/h

8  Éric Boyer  Z07h 18' 33"+  00:07:17 =31,741  km/h

9  Greg LeMond  Z07h 18' 34"+  00:07:18 =31,740  km/h

10  Jean-François Bernard  Banesto07h 18' 54"+  00:07:38 =31,716  km/h

11  Abelardo Rondón  Banesto07h 19' 08"+  00:07:52 =31,699  km/h

12  Gérard Rué  Helvetia07h 19' 12"+  00:07:56 =31,694  km/h

13  Patrice Esnault  Amaya Seguros07h 20' 56"+  00:09:40 =31,569  km/h

14  Pello Ruiz Cabestany  Clas-Cajastur07h 21' 21"+  00:10:05 =31,540  km/h

15  Denis Roux  Toshiba07h 21' 46"+  00:10:30 =31,510  km/h

16  Luc Leblanc  Castorama07h 23' 52"+  00:12:36 =31,361  km/h

17  Luis Herrera  Ryalcao-Postobon07h 23' 56"+  00:12:40 =31,356  km/h

18  Marco Giovannetti  Gatorade-Chateau d'Ax07h 24' 09"+  00:12:53 =31,341  km/h

19  Álvaro Mejía  Ryalcao-Postobon07h 24' 14"+  00:12:58 =31,335  km/h

20  Thierry Claveyrolat  R.M.O.-Mavic-Liberia07h 24' 33"+  00:13:17 =31,313  km/h

21  Gert-Jan Theunisse  TVM-Sanyo07h 25' 26"+  00:14:10 =31,250  km/h

22  Fabrice Philipot  Banesto07h 25' 26"+  00:14:10 =31,250  km/h

23  Pedro Delgado  Banesto07h 25' 26"+  00:14:10 =31,250  km/h

24  Steven Rooks  Buckler07h 25' 26"+  00:14:10 =31,250  km/h

25  Jerôme Simon  Z07h 25' 26"+  00:14:10 =31,250  km/h

26  Marino Lejarreta  O.N.C.E.07h 25' 26"+  00:14:10 =31,250  km/h

27  Alberto Camargo  Ryalcao-Postobon07h 25' 26"+  00:14:10 =31,250  km/h

28  Thierry Bourguignon  Toshiba07h 25' 26"+  00:14:10 =31,250  km/h

29  Fernando Quevedo  Amaya Seguros07h 25' 26"+  00:14:10 =31,250  km/h

30  Gilles Delion  Helvetia07h 25' 26"+  00:14:10 =31,250  km/h

31  Yvon Madiot  R.M.O.-Mavic-Liberia07h 25' 26"+  00:14:10 =31,250  km/h

32  Alberto Leanizbarrutia  Clas-Cajastur07h 25' 26"+  00:14:10 =31,250  km/h

33  Frédéric Vichot  Castorama07h 26' 10"+  00:14:54 =31,199  km/h

34  Johan Bruyneel  Lotto-Superclub-MBK07h 26' 10"+  00:14:54 =31,199  km/h

35  Pascal Simon  Castorama07h 26' 37"+  00:15:21 =31,168  km/h

36  Éric Caritoux  R.M.O.-Mavic-Liberia07h 26' 37"+  00:15:21 =31,168  km/h

37  Maurizio Fondriest  Panasonic-Sportlife07h 26' 52"+  00:15:36 =31,150  km/h

38  Javier Murguialday  Amaya Seguros07h 27' 14"+  00:15:58 =31,125  km/h

39  Gerrit De Vries  Buckler07h 27' 14"+  00:15:58 =31,125  km/h

40  Anselmo Fuerte  O.N.C.E.07h 27' 14"+  00:15:58 =31,125  km/h

41  Laurent Pillon  Tonton Tapis-Corona07h 27' 54"+  00:16:38 =31,078  km/h

42  Alessandro Giannelli  Carrera Jeans07h 28' 24"+  00:17:08 =31,044  km/h

43  Andreas Kappes  Histor-Sigma07h 28' 46"+  00:17:30 =31,018  km/h

44  Roberto Conti  Ariostea07h 29' 40"+  00:18:24 =30,956  km/h

45  Gerardo Moncada  Ryalcao-Postobon07h 31' 32"+  00:20:16 =30,828  km/h

46  Philippe Louviot  Toshiba07h 32' 09"+  00:20:53 =30,786  km/h

47  Jean-Claude Bagot  Castorama07h 32' 09"+  00:20:53 =30,786  km/h

48  Laurent Jalabert  Toshiba07h 32' 09"+  00:20:53 =30,786  km/h

49  Viatcheslav Ekimov  Panasonic-Sportlife07h 32' 34"+  00:21:18 =30,758  km/h

50  Dominique Arnaud  Banesto07h 32' 47"+  00:21:31 =30,743  km/h

51  Dimitri Zhdanov  Panasonic-Sportlife07h 33' 06"+  00:21:50 =30,722  km/h

52  Johnny Weltz  O.N.C.E.07h 33' 28"+  00:22:12 =30,697  km/h

53  Uwe Ampler  Histor-Sigma07h 33' 28"+  00:22:12 =30,697  km/h

54  Didier Virvaleix  Histor-Sigma07h 35' 27"+  00:24:11 =30,563  km/h

55  Henry Cárdenas  Ryalcao-Postobon07h 35' 32"+  00:24:16 =30,558  km/h

56  Reynel Montoya  Ryalcao-Postobon07h 35' 40"+  00:24:24 =30,549  km/h

57  Stephen Hodge  O.N.C.E.07h 36' 10"+  00:24:54 =30,515  km/h

58  Iñaki Gastón  Clas-Cajastur07h 36' 26"+  00:25:10 =30,497  km/h

59  Francisco Espinosa  Clas-Cajastur07h 36' 26"+  00:25:10 =30,497  km/h

60  Phil Anderson  Motorola07h 37' 00"+  00:25:44 =30,460  km/h

61  Dag Otto Lauritzen  Motorola07h 37' 00"+  00:25:44 =30,460  km/h

62  Mauro Ribeiro  R.M.O.-Mavic-Liberia07h 37' 00"+  00:25:44 =30,460  km/h

63  Dominique Arnould  Castorama07h 37' 00"+  00:25:44 =30,460  km/h

64  Óscar Vargas  Ryalcao-Postobon07h 38' 23"+  00:27:07 =30,368  km/h

65  Marco Lietti  Ariostea07h 39' 14"+  00:27:58 =30,311  km/h

66  Miguel Angel Martinez  O.N.C.E.07h 39' 22"+  00:28:06 =30,303  km/h

67  Ronan Pensec  Amaya Seguros07h 39' 52"+  00:28:36 =30,270  km/h

68  Manuel Dominguez  Clas-Cajastur07h 39' 52"+  00:28:36 =30,270  km/h

69  Arsenio Chaparro  Ryalcao-Postobon07h 39' 56"+  00:28:40 =30,265  km/h

70  Gilbert Duclos-Lassalle  Z07h 42' 11"+  00:30:55 =30,118  km/h

72  Herminio Diaz Zabala  O.N.C.E.07h 42' 11"+  00:30:55 =30,118  km/h

73  Enrico Zaina  Carrera Jeans07h 42' 11"+  00:30:55 =30,118  km/h

74  Bruno Cornillet  Z07h 42' 11"+  00:30:55 =30,118  km/h

75  Bjarne Riis  Castorama07h 42' 11"+  00:30:55 =30,118  km/h

76  Mauro Gianetti  Helvetia07h 42' 11"+  00:30:55 =30,118  km/h

77  François Lemarchand  Z07h 42' 11"+  00:30:55 =30,118  km/h

78  Melchor Mauri  O.N.C.E.07h 42' 11"+  00:30:55 =30,118  km/h

79  Bruno Cenghialta  Ariostea07h 42' 11"+  00:30:55 =30,118  km/h

80  Valerio Tebaldi  Gatorade-Chateau d'Ax07h 42' 11"+  00:30:55 =30,118  km/h

81  Francisco Mauleón  Clas-Cajastur07h 42' 11"+  00:30:55 =30,118  km/h

82  Robert Millar  Z07h 42' 11"+  00:30:55 =30,118  km/h

83  Dimitri Konychev  TVM-Sanyo07h 44' 35"+  00:33:19 =29,962  km/h

84  Dominik Krieger  Helvetia07h 45' 35"+  00:34:19 =29,898  km/h

85  Marc Sergeant  Panasonic-Sportlife07h 45' 38"+  00:34:22 =29,895  km/h

86  Guy Nulens  Panasonic-Sportlife07h 45' 38"+  00:34:22 =29,895  km/h

87  Eric Van Lancker  Panasonic-Sportlife07h 45' 38"+  00:34:22 =29,895  km/h

88  Jean-Claude Colotti  Tonton Tapis-Corona07h 45' 38"+  00:34:22 =29,895  km/h

89  Marc van Orsouw  Panasonic-Sportlife07h 45' 38"+  00:34:22 =29,895  km/h

90  Olaf Lurvik  Toshiba07h 45' 38"+  00:34:22 =29,895  km/h

91  Michel Dernies  Weinmann-Eddy Merckx07h 45' 38"+  00:34:22 =29,895  km/h

92  Marino Alonso  Banesto07h 45' 38"+  00:34:22 =29,895  km/h

93  Javier Lukin  Banesto07h 45' 38"+  00:34:22 =29,895  km/h

94  Francis Moreau  Tonton Tapis-Corona07h 45' 38"+  00:34:22 =29,895  km/h

95  Patrick Jacobs  Tonton Tapis-Corona07h 45' 38"+  00:34:22 =29,895  km/h

96  Rolf Järmann  Weinmann-Eddy Merckx07h 45' 38"+  00:34:22 =29,895  km/h

97  Roland Le Clerc  Amaya Seguros07h 45' 38"+  00:34:22 =29,895  km/h

98  Guido Bontempi  Carrera Jeans07h 46' 21"+  00:35:05 =29,849  km/h

99  Toine  Poels  Buckler07h 47' 26"+  00:36:10 =29,780  km/h

100  Guido Winterberg  Helvetia07h 47' 54"+  00:36:38 =29,750  km/h

101  Pascal Richard  Helvetia07h 47' 54"+  00:36:38 =29,750  km/h

102  Jelle Nijdam  Buckler07h 48' 02"+  00:36:46 =29,741  km/h

103  Jure Pavlič  Carrera Jeans07h 48' 06"+  00:36:50 =29,737  km/h

104  Frans Maassen  Buckler07h 48' 27"+  00:37:11 =29,715  km/h

105  Werner Stutz  Weinmann-Eddy Merckx07h 48' 37"+  00:37:21 =29,704  km/h

106  Rudy Verdonck  Weinmann-Eddy Merckx07h 49' 08"+  00:37:52 =29,672  km/h

107  Wilfried Peeters  Histor-Sigma07h 49' 08"+  00:37:52 =29,672  km/h

108  Edwig Van Hooydonck  Buckler07h 49' 08"+  00:37:52 =29,672  km/h

109  Peter Stevenhaagen  Helvetia07h 49' 08"+  00:37:52 =29,672  km/h

110  Nico  Emonds  Clas-Cajastur07h 49' 08"+  00:37:52 =29,672  km/h

111  Javier Duch  Clas-Cajastur07h 49' 08"+  00:37:52 =29,672  km/h

112  Enrique Guerrikagoitia  Amaya Seguros07h 49' 08"+  00:37:52 =29,672  km/h

113  Thierry Laurent  R.M.O.-Mavic-Liberia07h 49' 08"+  00:37:52 =29,672  km/h

114  José-Manuel Oliveira  Clas-Cajastur07h 49' 08"+  00:37:52 =29,672  km/h

115  Djamolidine Abduzhaparov  Carrera Jeans07h 49' 08"+  00:37:52 =29,672  km/h

116  Steve Bauer  Motorola07h 49' 08"+  00:37:52 =29,672  km/h

117  Moreno Argentin  Ariostea07h 49' 08"+  00:37:52 =29,672  km/h

118  Marc Madiot  R.M.O.-Mavic-Liberia07h 49' 08"+  00:37:52 =29,672  km/h

119  Alberto Elli  Ariostea07h 49' 08"+  00:37:52 =29,672  km/h

120  Camillo Passera  Gatorade-Chateau d'Ax07h 49' 08"+  00:37:52 =29,672  km/h

121  Vladimir Pulnikov  Carrera Jeans07h 49' 08"+  00:37:52 =29,672  km/h

122  Rob Harmeling  TVM-Sanyo07h 49' 08"+  00:37:52 =29,672  km/h

123  Michel Vermote  R.M.O.-Mavic-Liberia07h 49' 08"+  00:37:52 =29,672  km/h

124  Pascal Lance  Toshiba07h 49' 08"+  00:37:52 =29,672  km/h

125  Pascal Lino  R.M.O.-Mavic-Liberia07h 49' 08"+  00:37:52 =29,672  km/h

126  Guiseppe Calcaterra  Gatorade-Chateau d'Ax07h 49' 08"+  00:37:52 =29,672  km/h

127  Henri Abadie  Toshiba07h 49' 08"+  00:37:52 =29,672  km/h

128  Thierry Marie  Castorama07h 49' 08"+  00:37:52 =29,672  km/h

129  Philippe Casado  Z07h 49' 08"+  00:37:52 =29,672  km/h

130  Rolf Gölz  Ariostea07h 49' 08"+  00:37:52 =29,672  km/h

131  Erich Mächler  Carrera Jeans07h 49' 08"+  00:37:52 =29,672  km/h

132  Christian Chaubet  Toshiba07h 49' 08"+  00:37:52 =29,672  km/h

133  Thomas Barth  TVM-Sanyo07h 49' 08"+  00:37:52 =29,672  km/h

134  Alfred Achermann  Weinmann-Eddy Merckx07h 49' 08"+  00:37:52 =29,672  km/h

135  Stefano Zanatta  Gatorade-Chateau d'Ax07h 49' 08"+  00:37:52 =29,672  km/h

136  Etienne De Wilde  Histor-Sigma07h 49' 08"+  00:37:52 =29,672  km/h

137  Jesús Montoya  Amaya Seguros07h 49' 08"+  00:37:52 =29,672  km/h

138  Giancarlo Perini  Carrera Jeans07h 49' 08"+  00:37:52 =29,672  km/h

139  Per Pedersen  Amaya Seguros07h 49' 08"+  00:37:52 =29,672  km/h

140  Mauro-Antonio Santaromita  Gatorade-Chateau d'Ax07h 49' 08"+  00:37:52 =29,672  km/h

141  Patrick Verschueren  Lotto-Superclub-MBK07h 49' 56"+  00:38:40 =29,621  km/h

142  Johan Museeuw  Lotto-Superclub-MBK07h 49' 56"+  00:38:40 =29,621  km/h

143  Urs Zimmermann  Motorola07h 49' 56"+  00:38:40 =29,621  km/h

144  Christophe Lavainne  Castorama07h 49' 56"+  00:38:40 =29,621  km/h

145  Eric Vanderaerden  Buckler07h 49' 56"+  00:38:40 =29,621  km/h

146  Jan Schur  Gatorade-Chateau d'Ax07h 49' 56"+  00:38:40 =29,621  km/h

147  Sergei Uslamin  TVM-Sanyo07h 49' 56"+  00:38:40 =29,621  km/h

148  Gerrit Solleveld  Buckler07h 49' 56"+  00:38:40 =29,621  km/h

149  Andrew Bishop  Motorola07h 50' 00"+  00:38:44 =29,617  km/h

150  Jan Nevens  Lotto-Superclub-MBK07h 50' 02"+  00:38:46 =29,615  km/h

151  Ron Kiefel  Motorola07h 50' 17"+  00:39:01 =29,599  km/h

152  Peter De Clercq  Lotto-Superclub-MBK07h 50' 19"+  00:39:03 =29,597  km/h

153  Rik  Van Slycke  Lotto-Superclub-MBK07h 50' 28"+  00:39:12 =29,588  km/h

154  Sean Yates  Motorola07h 50' 37"+  00:39:21 =29,578  km/h

155  Roberto Gusmeroli  Gatorade-Chateau d'Ax07h 51' 07"+  00:39:51 =29,547  km/h

156  Thomas Wegmüller  Weinmann-Eddy Merckx07h 51' 08"+  00:39:52 =29,546  km/h

157  Laurence Roche  Tonton Tapis-Corona07h 51' 42"+  00:40:26 =29,510  km/h

158  Davide Cassani  Ariostea07h 51' 57"+  00:40:41 =29,495  km/h

159  Eddy Schurer  TVM-Sanyo07h 52' 00"+  00:40:44 =29,492  km/h

160  Olaf Ludwig  Panasonic-Sportlife07h 52' 19"+  00:41:03 =29,472  km/h

161  Sammie Moreels  Lotto-Superclub-MBK07h 52' 19"+  00:41:03 =29,472  km/h

162  Vasily Zhdanov  TVM-Sanyo07h 52' 51"+  00:41:35 =29,439  km/h

163  Atle Kvå lsvoll  Z07h 52' 53"+  00:41:37 =29,436  km/h

164  Carlo Bomans  Weinmann-Eddy Merckx07h 52' 57"+  00:41:41 =29,432  km/h

165  Frank Van Den Abeele  Lotto-Superclub-MBK07h 52' 57"+  00:41:41 =29,432  km/h

166  Remig Stumpf  Histor-Sigma07h 53' 24"+  00:42:08 =29,404  km/h

167  Hendrik Redant  Lotto-Superclub-MBK07h 53' 24"+  00:42:08 =29,404  km/h

168  Jan Siemons  TVM-Sanyo07h 53' 53"+  00:42:37 =29,374  km/h

169  Henri Manders  Helvetia07h 53' 53"+  00:42:37 =29,374  km/h

170  Ludwig Willems  Weinmann-Eddy Merckx07h 54' 31"+  00:43:15 =29,335  km/h

171  Carlos Jaramillo  Ryalcao-Postobon07h 57' 04"+  00:45:48 =29,178  km/h

172  Brian Holm  Histor-Sigma07h 57' 58"+  00:46:42 =29,123  km/h

173  Wiebren Veenstra  Buckler08h 01' 12"+  00:49:56 =28,928  km/h


Withdrawls: 8
 RiderTeamReason
48   José Luis Villanueva O.N.C.E.Did not finish
165   Jan Goessens Weinmann-Eddy MerckxDid not finish
175   Søren Lilholt Histor-SigmaDid not finish
178   Benjamin Van Itterbeeck Histor-SigmaDid not finish
202   John Carlsen Tonton Tapis-CoronaDid not finish
151   Rudy Dhaenens Panasonic-SportlifeExceeded time limit
204   Dirk De Wolf Tonton Tapis-CoronaExceeded time limit
207   Atle Pedersen Tonton Tapis-CoronaExceeded time limit
Todays birthdays.

1888 • Giuseppe Contesini
1911 • Edmond Pages
1935 • Eddy Pauwels
1940 • Julien Haelterman
1958 • Luc Colijn
1962 • Jean-François Bernard
1984 • Yann Huguet
1993 • Owain Doull

 

Optimized for Chrome - Edge
and Opera browsers.